Погода в Сан-Мигель-де-Косумеле

Мексика     20°29′59″N   86°57′15″W
темп.,
°C
ветер,
м/с
пор.,
м/с
влажн.,
%
обл.,
%
осадки,
мм/ч
давл.,
гПа
погр.,
м
18 мая, вт
вт1801:00+27вюв4779100 0.0 1013575
04:00+27вюв577829 0.0 1012723
07:00+27вюв477895 0.0 1013713
10:00+29юв567198 0.2 1014891
13:00+30ююв576993 0.5 1013963
16:00+29ююв566786 0.4 1011867
19:00+28юв46755 0.5 1011740
22:00+27вюв48815 0.2 1013604
19 мая, ср
ср1901:00+27вюв58775 0.2 1012786
04:00+27вюв587598 0.0 1011876
07:00+27юв6982100 0.6 1012736
10:00+29вюв477073 0.1 1013831
13:00+30вюв576798 0.5 1012885
16:00+30вюв5768100 0.1 1010916
19:00+28вюв687798 0.3 1011855
22:00+27вюв6978100 0.2 1012874
20 мая, чт
чт2001:00+27вюв697847 0.5 1012911
04:00+27вюв697845 0.1 1011949
07:00+27вюв6877100 0.3 1012902
10:00+27вюв588175 1.4 1014786
13:00+28вюв577948 3.1 1013834
16:00+28вюв467621 1.1 1011890
19:00+27вюв588486 1.9 1012638
22:00+27в698098 0.9 1014777
21 мая, пт
пт2101:00+27вюв6979100 1.3 1013853
04:00+26вюв698499 1.3 1012613
07:00+26вюв5886100 3.1 1014486
10:00+27вюв578292 2.6 1015662
13:00+27в468186 6.4 1015606
16:00+28в677389 3.7 1014813
19:00+26всв71086100 9.8 1014624
22:00+26в6983100 0.3 1015723
22 мая, сб
сб2201:00+26в6983100 1.3 1015657
04:00+25в6986100 6.6 1014545
07:00+25в5888100 12.9 1015482
10:00+26в6886100 5.2 1016585
13:00+26всв71088100 11.2 1015704
16:00+25всв71092100 3.3 1014627
19:00+25в6991100 5.4 1014602
22:00+25в5891100 2.6 1016492